Weather History for Pellston, MI

Change the Weather History Date:

Thursday, July 11, 2013

  Actual Average Record
Temperature  
Mean Temperature 64 °F -  
Max Temperature 77 °F 80 °F 95 °F (2005)
Min Temperature 51 °F 51 °F 36 °F (1978)
Degree Days  
Heating Degree Days 1    
Growing Degree Days 14 (Base 50)    
Moisture  
Dew Point 50 °F    
Average Humidity 66    
Maximum Humidity 96    
Minimum Humidity 32    
Precipitation  
Precipitation 0.00 in - - ()
Sea Level Pressure  
Sea Level Pressure 30.07 in    
Wind  
Wind Speed 4 mph (North)    
Max Wind Speed 10 mph    
Max Gust Speed 16 mph    
Visibility 10 miles    
Events      
Averages and records for this station are not official NWS values.
T = Trace of Precipitation, MM = Missing Value Source: NWS Daily Summary

Daily Weather History Graph

Daily Weather History Graph

Search for Another Location

Airport:

Trip Planner

Search our weather history database for the weather conditions in past years. The results will help you decide how hot, cold, wet, or windy it might be!

Date:

Astronomy

Jul. 11, 2013 Rise Set
Actual Time 6:01 AM EDT 9:27 PM EDT
Civil Twilight 5:24 AM EDT 10:04 PM EDT
Nautical Twilight 4:35 AM EDT 10:52 PM EDT
Astronomical Twilight 3:33 AM EDT 11:54 PM EDT
Moon 9:31 AM EDT (7/11) 10:53 PM EDT (7/11)
Length of Visible Light 16h 39m
Length of Day
15h 26m
Waxing Crescent, 10% of the Moon is Illuminated
Jul 11
Waxing Crescent
Jul 15
First Quarter
Jul 22
Full
Jul 29
Last Quarter
Aug 6
New

Hourly Weather History & Observations

Time (EDT) Temp. Dew Point Humidity Pressure Visibility Wind Dir Wind Speed Gust Speed Precip Events Conditions
12:54 AM 55.9 °F 53.1 °F 90% 29.97 in 10.0 mi NW 3.5 mph - N/A   Partly Cloudy
1:54 AM 54.0 °F 52.0 °F 93% 29.97 in 10.0 mi NW 5.8 mph - N/A   Clear
2:54 AM 53.1 °F 51.1 °F 93% 29.98 in 10.0 mi NW 3.5 mph - N/A   Clear
3:54 AM 53.1 °F 51.1 °F 93% 29.99 in 10.0 mi Calm Calm - N/A   Scattered Clouds
4:54 AM 53.1 °F 51.1 °F 93% 30.01 in 10.0 mi Calm Calm - N/A   Clear
5:54 AM 51.1 °F 50.0 °F 96% 30.02 in 10.0 mi Calm Calm - N/A   Clear
6:54 AM 52.0 °F 50.0 °F 93% 30.04 in 10.0 mi Calm Calm - N/A   Clear
7:54 AM 59.0 °F 55.0 °F 87% 30.06 in 10.0 mi WNW 3.5 mph - N/A   Clear
8:54 AM 64.0 °F 52.0 °F 65% 30.08 in 10.0 mi North 6.9 mph - N/A   Clear
9:54 AM 66.0 °F 52.0 °F 60% 30.10 in 10.0 mi NNE 8.1 mph - N/A   Clear
10:54 AM 68.0 °F 52.0 °F 56% 30.10 in 10.0 mi North 4.6 mph - N/A   Partly Cloudy
11:54 AM 70.0 °F 50.0 °F 49% 30.11 in 10.0 mi NNW 6.9 mph - N/A   Scattered Clouds
12:54 PM 72.0 °F 50.0 °F 46% 30.11 in 10.0 mi North 10.4 mph - N/A   Clear
1:54 PM 73.0 °F 52.0 °F 48% 30.10 in 10.0 mi Variable 6.9 mph - N/A   Partly Cloudy
2:54 PM 75.0 °F 50.0 °F 41% 30.10 in 10.0 mi NNE 10.4 mph 16.1 mph N/A   Clear
3:54 PM 75.9 °F 48.9 °F 38% 30.10 in 10.0 mi NNW 6.9 mph - N/A   Clear
4:54 PM 75.9 °F 48.0 °F 37% 30.10 in 10.0 mi NE 5.8 mph - N/A   Clear
5:54 PM 77.0 °F 46.0 °F 33% 30.09 in 10.0 mi ENE 5.8 mph - N/A   Clear
6:54 PM 75.0 °F 43.0 °F 32% 30.09 in 10.0 mi ESE 3.5 mph - N/A   Clear
7:54 PM 75.0 °F 46.9 °F 37% 30.09 in 10.0 mi ESE 3.5 mph - N/A   Clear
8:54 PM 69.1 °F 51.1 °F 53% 30.09 in 10.0 mi Calm Calm - N/A   Clear
9:54 PM 61.0 °F 53.1 °F 75% 30.09 in 10.0 mi Calm Calm - N/A   Clear
10:54 PM 55.9 °F 53.1 °F 90% 30.10 in 10.0 mi Calm Calm - N/A   Clear
11:54 PM 52.0 °F 50.0 °F 93% 30.12 in 10.0 mi Calm Calm - N/A   Clear